Date,Time,Wetness (Wet Dry or Ice),Wind Speed (m/s),Temperature (C),Humidity (%),Pressure (mb),Radiation (W/m^2)
2017-12-23,05:55:00,DRY,1.10,5.70,14.0,780.00,1.1
2017-12-23,06:00:00,DRY,1.90,5.53,14.3,780.00,0.7
2017-12-23,06:05:00,DRY,1.65,5.50,15.0,780.00,1.7
2017-12-23,06:10:00,DRY,1.93,5.83,15.0,779.67,1.3
2017-12-23,06:15:00,DRY,1.85,5.80,14.0,779.50,0.8
2017-12-23,06:20:00,DRY,2.10,5.57,14.7,780.00,0.7
2017-12-23,06:25:00,DRY,0.85,5.00,14.0,779.50,0.8
2017-12-23,06:30:00,DRY,1.63,5.27,14.7,779.67,0.2
2017-12-23,06:35:00,DRY,2.20,5.30,14.5,780.00,1.2
2017-12-23,06:40:00,DRY,2.00,4.97,15.3,780.00,0.5
2017-12-23,06:45:00,DRY,2.15,5.00,14.5,780.00,0.3
2017-12-23,06:50:00,DRY,2.60,4.93,14.7,780.00,1.3
2017-12-23,06:55:00,DRY,1.95,4.45,16.0,780.00,0.9
2017-12-23,07:00:00,DRY,2.27,4.60,15.3,780.00,1.3
2017-12-23,07:05:00,DRY,2.05,4.80,14.5,780.00,1.1
2017-12-23,07:10:00,DRY,2.33,4.63,15.3,780.00,0.9
2017-12-23,07:15:00,DRY,2.20,4.65,15.0,780.00,1.2
2017-12-23,07:20:00,DRY,2.43,4.63,15.0,780.00,1.7
2017-12-23,07:25:00,DRY,2.10,4.65,14.5,780.00,0.7
2017-12-23,07:30:00,DRY,1.90,4.93,14.3,780.00,0.2
2017-12-23,07:35:00,DRY,1.95,4.90,14.0,780.00,2.2
2017-12-23,07:40:00,DRY,1.70,4.73,14.7,780.00,2.4
2017-12-23,07:45:00,DRY,1.95,4.80,16.0,780.00,0.7
2017-12-23,07:50:00,DRY,2.47,5.10,14.3,780.00,2.4
2017-12-23,07:55:00,DRY,2.60,5.25,14.5,780.00,4.2
2017-12-23,08:00:00,DRY,2.67,5.03,15.0,780.00,6.2
2017-12-23,08:05:00,DRY,2.40,5.00,15.0,780.00,8.0
2017-12-23,08:10:00,DRY,2.33,5.03,14.3,780.00,10.3
2017-12-23,08:15:00,DRY,2.65,4.95,15.0,780.00,12.3
2017-12-23,08:20:00,DRY,3.00,4.83,15.3,780.00,14.5
2017-12-23,08:25:00,DRY,3.10,4.80,16.0,780.00,15.8
2017-12-23,08:30:00,DRY,2.37,4.67,16.0,780.00,17.7
2017-12-23,08:35:00,DRY,2.85,4.55,15.5,780.00,19.2
2017-12-23,08:40:00,DRY,2.80,4.47,16.3,780.00,21.7
2017-12-23,08:45:00,DRY,3.55,4.75,16.0,780.00,135.7
2017-12-23,08:50:00,DRY,2.90,4.87,16.0,780.00,173.2
2017-12-23,08:55:00,DRY,2.95,4.80,16.0,780.00,191.4
2017-12-23,09:00:00,DRY,3.17,4.87,15.7,780.00,210.1
2017-12-23,09:05:00,DRY,3.05,5.00,17.5,780.00,228.6
2017-12-23,09:10:00,DRY,2.90,4.73,16.7,780.00,247.4
2017-12-23,09:15:00,DRY,2.65,4.65,16.0,780.00,266.2
2017-12-23,09:20:00,DRY,2.47,4.80,16.7,780.00,282.7
2017-12-23,09:25:00,DRY,2.65,4.80,17.0,780.00,301.9
2017-12-23,09:30:00,DRY,2.53,4.63,16.3,780.00,319.0
2017-12-23,09:35:00,DRY,2.10,4.75,16.0,780.00,336.1
2017-12-23,09:40:00,DRY,3.27,4.73,16.7,780.00,353.5
2017-12-23,09:45:00,DRY,2.20,4.90,16.0,780.00,369.6
2017-12-23,09:50:00,DRY,2.10,4.83,16.3,780.00,385.9
2017-12-23,09:55:00,DRY,2.90,5.30,16.0,780.00,403.1
2017-12-23,10:00:00,DRY,2.50,5.50,14.7,780.00,419.6
2017-12-23,10:05:00,DRY,2.95,5.55,14.0,780.00,434.8
2017-12-23,10:10:00,DRY,1.40,5.97,14.3,780.00,450.0
2017-12-23,10:15:00,DRY,1.90,6.10,15.0,780.00,465.6
2017-12-23,10:20:00,DRY,2.17,6.03,15.0,780.00,479.9
2017-12-23,10:25:00,DRY,1.50,6.10,15.0,780.00,495.8
2017-12-23,10:30:00,DRY,1.83,6.10,16.0,780.00,509.4
2017-12-23,10:35:00,DRY,1.90,5.90,16.0,780.00,523.0
2017-12-23,10:40:00,DRY,1.93,5.43,17.7,780.00,535.5
2017-12-23,10:45:00,DRY,1.60,5.15,23.0,780.00,549.0
2017-12-23,10:50:00,DRY,1.90,5.27,19.7,780.00,561.3
2017-12-23,10:55:00,DRY,1.95,5.55,17.0,780.00,573.9
2017-12-23,11:00:00,DRY,1.17,5.63,20.0,780.00,584.1
2017-12-23,11:05:00,DRY,1.55,5.65,22.0,780.00,594.7
2017-12-23,11:10:00,DRY,2.43,5.90,21.3,780.00,605.9
2017-12-23,11:15:00,DRY,1.95,5.75,21.5,780.00,615.1
2017-12-23,11:20:00,DRY,2.37,5.63,24.3,780.00,625.9
2017-12-23,11:25:00,DRY,2.50,5.90,33.5,780.00,634.3
2017-12-23,11:30:00,DRY,2.10,5.83,30.3,780.00,644.8
2017-12-23,11:35:00,DRY,2.30,5.95,26.0,780.00,652.4
2017-12-23,11:40:00,DRY,1.17,6.03,27.3,780.00,660.8
2017-12-23,11:45:00,DRY,3.30,6.15,40.5,780.00,668.3
2017-12-23,11:50:00,DRY,1.47,5.93,37.7,780.00,677.2
2017-12-23,11:55:00,DRY,1.40,6.05,49.0,780.00,685.1
2017-12-23,12:00:00,DRY,2.20,6.00,37.0,780.00,692.3
2017-12-23,12:05:00,DRY,2.95,6.00,40.5,780.00,698.0
2017-12-23,12:10:00,DRY,1.60,6.03,39.3,780.00,703.0
2017-12-23,12:15:00,DRY,2.05,6.00,30.5,780.00,707.6
2017-12-23,12:20:00,DRY,2.67,5.83,31.7,780.00,713.5
2017-12-23,12:25:00,DRY,2.30,5.80,28.5,780.00,715.5
2017-12-23,12:30:00,DRY,2.07,5.37,33.0,780.00,719.7
2017-12-23,12:35:00,DRY,1.90,5.45,34.0,780.00,723.4
2017-12-23,12:40:00,DRY,1.63,5.57,39.0,780.00,724.9
2017-12-23,12:45:00,DRY,1.70,5.45,39.5,780.00,729.7
2017-12-23,12:50:00,DRY,2.40,5.50,39.7,779.00,730.6
2017-12-23,12:55:00,DRY,2.50,5.40,35.5,779.50,733.0
2017-12-23,13:00:00,DRY,2.20,5.10,36.7,779.00,734.8
2017-12-23,13:05:00,DRY,3.10,5.15,34.5,779.00,738.4
2017-12-23,13:10:00,DRY,1.90,5.00,49.0,779.00,703.5
2017-12-23,13:15:00,DRY,1.55,5.00,68.0,779.00,671.5
2017-12-23,13:20:00,DRY,1.33,5.03,49.7,779.00,743.3
2017-12-23,13:25:00,DRY,1.75,5.00,45.0,779.00,733.1
2017-12-23,13:30:00,DRY,0.30,4.80,57.0,779.00,732.0
2017-12-23,13:35:00,DRY,2.50,4.80,40.0,779.00,730.5
2017-12-23,13:40:00,DRY,1.97,4.57,55.3,779.00,740.5
2017-12-23,13:45:00,DRY,1.40,4.55,69.0,779.00,778.4
2017-12-23,13:50:00,DRY,0.87,4.50,69.0,779.00,737.8
2017-12-23,13:55:00,DRY,2.10,4.65,61.5,779.00,716.9
2017-12-23,14:00:00,DRY,2.60,4.63,63.3,778.00,714.3
2017-12-23,14:05:00,DRY,1.30,4.45,62.0,778.00,708.2
2017-12-23,14:10:00,DRY,0.40,4.70,68.0,778.00,701.4
2017-12-23,14:15:00,DRY,1.90,4.60,68.5,778.00,702.6
2017-12-23,14:20:00,DRY,1.87,4.73,64.0,778.00,692.6
2017-12-23,14:25:00,DRY,2.10,4.85,67.5,778.00,700.0
2017-12-23,14:30:00,DRY,2.53,4.17,63.0,778.00,678.7
2017-12-23,14:35:00,DRY,3.40,4.40,57.0,778.00,665.5
2017-12-23,14:40:00,DRY,1.40,4.53,64.3,778.00,656.7
2017-12-23,14:45:00,DRY,2.00,4.90,58.5,778.00,649.5
2017-12-23,14:50:00,DRY,1.60,4.80,50.0,778.00,639.3
2017-12-23,14:55:00,DRY,1.90,4.75,54.0,778.00,627.5
2017-12-23,15:00:00,DRY,2.23,4.67,48.7,778.00,620.2
2017-12-23,15:05:00,DRY,2.50,4.85,66.5,778.00,599.5
2017-12-23,15:10:00,DRY,1.97,4.30,64.0,778.00,604.0
2017-12-23,15:15:00,DRY,1.75,4.75,49.0,778.00,585.9
2017-12-23,15:20:00,DRY,1.67,5.13,60.0,778.00,574.6
2017-12-23,15:25:00,DRY,3.90,5.25,45.0,778.00,563.9
2017-12-23,15:30:00,DRY,2.80,4.43,53.7,778.00,550.4
2017-12-23,15:35:00,DRY,1.80,4.65,57.0,778.00,537.5
2017-12-23,15:40:00,DRY,1.80,4.70,56.3,778.00,521.7
2017-12-23,15:45:00,DRY,1.95,4.90,48.5,778.00,509.4
2017-12-23,15:50:00,DRY,2.83,5.27,48.3,778.00,494.6
2017-12-23,15:55:00,DRY,2.60,5.45,46.0,778.00,480.2
2017-12-23,16:00:00,DRY,2.63,5.60,41.0,778.00,464.2
2017-12-23,16:05:00,DRY,2.05,5.95,31.5,778.00,448.9
2017-12-23,16:10:00,DRY,0.60,6.07,33.0,778.00,433.9
2017-12-23,16:15:00,DRY,2.25,6.15,29.5,778.00,417.1
2017-12-23,16:20:00,DRY,1.03,5.80,33.3,778.00,401.5
2017-12-23,16:25:00,DRY,1.10,5.75,28.5,778.00,385.1
2017-12-23,16:30:00,DRY,1.03,5.87,28.0,778.00,369.0
2017-12-23,16:35:00,DRY,2.30,6.00,33.0,778.00,351.1
2017-12-23,16:40:00,DRY,1.47,5.33,43.0,778.00,333.3
2017-12-23,16:45:00,DRY,1.25,4.80,42.5,778.00,314.7
2017-12-23,16:50:00,DRY,1.87,4.43,37.0,778.00,296.9
2017-12-23,16:55:00,DRY,1.35,4.30,30.5,778.00,280.8
2017-12-23,17:00:00,DRY,2.20,4.70,24.0,778.00,262.8
2017-12-23,17:05:00,DRY,1.75,4.90,31.5,778.00,246.4
2017-12-23,17:10:00,DRY,2.33,4.50,32.7,778.00,228.9
2017-12-23,17:15:00,DRY,3.35,4.30,25.0,778.00,211.6
2017-12-23,17:20:00,DRY,3.20,4.13,21.3,778.00,194.4
2017-12-23,17:25:00,DRY,3.95,3.95,18.5,778.00,177.5
2017-12-23,17:30:00,DRY,3.27,4.20,17.0,778.00,160.4
2017-12-23,17:35:00,DRY,3.40,4.35,19.0,778.00,142.7
2017-12-23,17:40:00,DRY,2.53,4.13,20.7,778.00,119.2
2017-12-23,17:45:00,DRY,2.55,3.75,19.5,778.00,93.2
2017-12-23,17:50:00,DRY,3.33,3.67,19.3,778.00,71.3
2017-12-23,17:55:00,DRY,3.90,3.55,20.0,778.00,55.7
2017-12-23,18:00:00,DRY,2.83,3.60,19.0,778.00,37.8
2017-12-23,18:05:00,DRY,3.45,3.85,17.5,778.00,26.4
2017-12-23,18:10:00,DRY,1.90,4.70,14.7,778.00,17.5
2017-12-23,18:15:00,DRY,1.95,4.85,15.0,778.00,13.7
2017-12-23,18:20:00,DRY,2.77,4.43,14.0,778.00,8.4
2017-12-23,18:25:00,DRY,3.10,3.90,15.0,778.00,4.3
2017-12-23,18:30:00,DRY,1.83,4.53,13.7,778.00,2.6
2017-12-23,18:35:00,DRY,0.90,4.55,15.0,778.00,1.2
2017-12-23,18:40:00,DRY,1.87,4.67,14.3,778.00,1.2
2017-12-23,18:45:00,DRY,1.75,5.00,13.0,778.00,1.8
2017-12-23,18:50:00,DRY,2.37,5.07,14.0,778.00,1.0
2017-12-23,18:55:00,DRY,2.65,5.30,13.5,778.00,1.1
2017-12-23,19:00:00,DRY,3.23,5.23,13.3,778.00,0.8
2017-12-23,19:05:00,DRY,4.35,5.40,12.0,778.00,0.7
2017-12-23,19:10:00,DRY,4.33,5.73,10.0,778.00,0.9
2017-12-23,19:15:00,DRY,4.05,5.95,10.0,778.00,0.7
2017-12-23,19:20:00,DRY,4.53,5.80,11.0,778.00,0.6
2017-12-23,19:25:00,DRY,3.95,5.80,10.5,778.00,1.4
2017-12-23,19:30:00,DRY,3.77,5.80,9.7,778.00,0.8
2017-12-23,19:35:00,DRY,3.80,5.80,10.0,778.00,0.3
2017-12-23,19:40:00,DRY,2.90,5.77,10.3,778.00,0.2
2017-12-23,19:45:00,DRY,4.80,6.05,9.5,778.00,0.6
2017-12-23,19:50:00,DRY,4.20,5.90,10.0,778.00,1.0
2017-12-23,19:55:00,DRY,3.65,6.00,8.5,778.00,1.9
2017-12-23,20:00:00,DRY,3.33,5.87,9.0,778.00,0.8
2017-12-23,20:05:00,DRY,4.35,6.00,8.0,778.00,1.0
2017-12-23,20:10:00,DRY,3.57,6.03,8.0,778.00,0.8
2017-12-23,20:15:00,DRY,4.60,6.05,9.0,778.00,0.6
2017-12-23,20:20:00,DRY,4.53,6.00,8.0,778.00,0.8
2017-12-23,20:25:00,DRY,3.35,6.05,8.0,778.00,0.5
2017-12-23,20:30:00,DRY,2.23,5.83,9.0,778.00,1.1
2017-12-23,20:35:00,DRY,2.25,5.65,10.0,778.00,0.5
2017-12-23,20:40:00,DRY,1.87,5.57,10.0,778.00,0.7
2017-12-23,20:45:00,DRY,1.75,5.60,9.0,778.00,0.8
2017-12-23,20:50:00,DRY,2.13,6.00,9.3,778.00,0.8
2017-12-23,20:55:00,DRY,2.20,5.65,9.5,778.00,0.9
2017-12-23,21:00:00,DRY,2.97,5.83,8.3,778.00,0.2
2017-12-23,21:05:00,DRY,3.70,5.80,8.5,778.00,0.6
2017-12-23,21:10:00,DRY,3.97,5.97,8.7,778.00,0.5
2017-12-23,21:15:00,DRY,2.50,5.85,9.5,778.00,1.1
2017-12-23,21:20:00,DRY,2.03,5.63,10.0,778.00,0.9
2017-12-23,21:25:00,DRY,1.70,5.25,11.0,778.00,0.7
2017-12-23,21:30:00,DRY,2.07,5.23,10.3,778.00,0.3
2017-12-23,21:35:00,DRY,2.90,5.35,9.0,778.00,1.3
2017-12-23,21:40:00,DRY,3.73,5.43,9.7,778.00,0.3
2017-12-23,21:45:00,DRY,5.30,5.70,10.0,778.00,0.5
2017-12-23,21:50:00,DRY,4.97,5.80,9.7,778.00,0.4
2017-12-23,21:55:00,DRY,6.20,5.95,8.5,778.00,0.3
2017-12-23,22:00:00,DRY,3.80,5.70,10.7,778.00,0.7
2017-12-23,22:05:00,DRY,4.20,5.70,9.5,778.00,0.5
2017-12-23,22:10:00,DRY,3.67,5.67,9.7,778.00,0.7
2017-12-23,22:15:00,DRY,5.20,5.95,8.5,778.00,0.8
2017-12-23,22:20:00,DRY,3.53,5.90,8.7,778.00,0.5
2017-12-23,22:25:00,DRY,2.05,5.75,9.0,778.00,0.8
2017-12-23,22:30:00,DRY,5.60,5.77,9.7,778.00,0.5
2017-12-23,22:35:00,DRY,5.55,5.65,10.0,778.00,0.4
2017-12-23,22:40:00,DRY,4.70,5.80,9.7,778.00,0.4
2017-12-23,22:45:00,DRY,6.10,5.55,9.0,778.00,0.8
2017-12-23,22:50:00,DRY,4.50,5.70,10.0,778.00,0.7
2017-12-23,22:55:00,DRY,5.20,5.50,10.0,778.00,0.7
2017-12-23,23:00:00,DRY,4.57,5.63,9.0,778.00,0.6
2017-12-23,23:05:00,DRY,5.70,5.45,9.5,778.00,0.8
2017-12-23,23:10:00,DRY,5.97,5.47,10.3,778.00,0.8
2017-12-23,23:15:00,DRY,3.55,5.50,9.0,778.00,0.4
2017-12-23,23:20:00,DRY,3.87,5.57,9.0,778.00,0.4
2017-12-23,23:25:00,DRY,5.40,5.75,10.5,778.00,0.5
2017-12-23,23:30:00,DRY,4.33,5.87,8.7,778.00,0.7
2017-12-23,23:35:00,DRY,3.35,6.15,8.0,778.00,1.1
2017-12-23,23:40:00,DRY,5.70,6.00,8.7,778.00,0.4
2017-12-23,23:45:00,DRY,3.50,6.00,9.0,778.00,0.8
2017-12-23,23:50:00,DRY,3.47,5.97,7.3,778.00,0.6
2017-12-23,23:55:00,DRY,4.25,6.00,7.5,778.00,0.3
2017-12-24,00:00:00,DRY,3.13,5.70,8.3,778.00,0.5
2017-12-24,00:05:00,DRY,2.05,5.40,9.5,778.00,0.0
2017-12-24,00:10:00,DRY,2.60,5.43,10.3,778.00,0.6
2017-12-24,00:15:00,DRY,3.40,5.50,9.0,778.00,0.2
2017-12-24,00:20:00,DRY,2.57,5.63,9.3,778.00,1.0
2017-12-24,00:25:00,DRY,3.65,5.60,9.0,778.00,0.8
2017-12-24,00:30:00,DRY,3.80,5.57,7.7,778.00,0.3
2017-12-24,00:35:00,DRY,1.95,5.65,8.5,778.00,1.4
2017-12-24,00:40:00,DRY,3.67,5.67,7.7,778.00,1.5
2017-12-24,00:45:00,DRY,4.65,5.75,8.0,778.00,0.4
2017-12-24,00:50:00,DRY,3.70,5.73,7.3,778.00,0.7
2017-12-24,00:55:00,DRY,5.05,5.65,6.5,777.50,0.4
2017-12-24,01:00:00,DRY,4.17,5.63,7.3,777.33,0.5
2017-12-24,01:05:00,DRY,4.65,5.60,6.5,777.00,0.5
2017-12-24,01:10:00,DRY,3.50,5.60,6.0,777.33,0.9
2017-12-24,01:15:00,DRY,3.15,5.65,6.0,777.00,0.9
2017-12-24,01:20:00,DRY,4.27,5.60,6.7,777.00,0.5
2017-12-24,01:25:00,DRY,2.10,5.55,7.0,777.00,1.1
2017-12-24,01:30:00,DRY,3.07,5.20,8.3,777.00,0.4
2017-12-24,01:35:00,DRY,3.15,5.10,8.0,777.00,0.9
2017-12-24,01:40:00,DRY,3.23,4.60,9.7,777.00,0.5
2017-12-24,01:45:00,DRY,4.10,4.80,9.0,777.00,1.1
2017-12-24,01:50:00,DRY,4.13,4.47,8.3,777.00,0.6
2017-12-24,01:55:00,DRY,3.15,4.60,8.5,777.00,0.7
2017-12-24,02:00:00,DRY,3.30,4.27,8.7,777.00,0.8
2017-12-24,02:05:00,DRY,3.20,4.65,8.0,777.00,1.4
2017-12-24,02:10:00,DRY,3.67,4.50,9.7,777.00,0.5
2017-12-24,02:15:00,DRY,3.70,4.40,9.0,777.00,0.7
2017-12-24,02:20:00,DRY,5.57,4.67,7.7,777.00,0.7
2017-12-24,02:25:00,DRY,4.00,4.95,6.5,777.00,0.5
2017-12-24,02:30:00,DRY,4.63,4.73,7.0,777.00,0.7
2017-12-24,02:35:00,DRY,4.00,4.80,6.0,777.00,0.8
2017-12-24,02:40:00,DRY,4.40,4.67,6.3,777.00,0.9
2017-12-24,02:45:00,DRY,4.00,4.85,5.5,777.00,0.7
2017-12-24,02:50:00,DRY,4.27,4.93,6.0,777.00,0.8
2017-12-24,02:55:00,DRY,4.70,4.80,5.0,777.00,0.5
2017-12-24,03:00:00,DRY,4.03,5.07,4.0,777.00,0.4
2017-12-24,03:05:00,DRY,3.55,5.25,5.0,777.00,0.5
2017-12-24,03:10:00,DRY,4.63,5.30,4.7,777.00,0.4
2017-12-24,03:15:00,DRY,4.30,5.15,5.5,777.00,0.3
2017-12-24,03:20:00,DRY,2.70,5.30,4.3,777.00,0.8
2017-12-24,03:25:00,DRY,3.75,5.30,4.5,777.00,0.2
2017-12-24,03:30:00,DRY,3.63,5.20,4.0,777.00,0.6
2017-12-24,03:35:00,DRY,4.65,5.05,5.0,777.00,0.7
2017-12-24,03:40:00,DRY,4.87,4.90,4.7,777.00,0.4
2017-12-24,03:45:00,DRY,4.90,5.10,5.5,777.00,0.0
2017-12-24,03:50:00,DRY,3.47,5.03,4.7,777.00,0.6
2017-12-24,03:55:00,DRY,3.20,4.95,6.0,777.00,0.7
2017-12-24,04:00:00,DRY,5.10,4.83,6.0,777.00,0.8
2017-12-24,04:05:00,DRY,5.60,4.90,5.0,777.00,0.7
2017-12-24,04:10:00,DRY,5.17,4.73,5.3,776.67,0.5
2017-12-24,04:15:00,DRY,4.55,4.70,5.0,776.50,0.8
2017-12-24,04:20:00,DRY,4.87,4.67,5.0,776.00,0.8
2017-12-24,04:25:00,DRY,5.25,4.60,7.5,776.00,0.7
2017-12-24,04:30:00,DRY,4.10,4.63,5.7,776.00,0.5
2017-12-24,04:35:00,DRY,3.90,4.60,5.0,776.00,0.8
2017-12-24,04:40:00,DRY,4.10,4.67,5.7,776.00,0.3
2017-12-24,04:45:00,DRY,4.15,4.50,6.5,776.00,0.7
2017-12-24,04:50:00,DRY,3.17,4.47,6.3,776.00,0.4
2017-12-24,04:55:00,DRY,3.95,4.50,6.5,776.00,0.7
2017-12-24,05:00:00,DRY,5.60,4.40,7.3,776.00,0.4
2017-12-24,05:05:00,DRY,4.30,4.40,8.5,776.00,0.6
2017-12-24,05:10:00,DRY,4.40,4.40,8.3,776.00,0.4
2017-12-24,05:15:00,DRY,5.40,4.40,9.0,776.00,0.3
2017-12-24,05:20:00,DRY,4.23,4.30,8.3,776.00,0.4
2017-12-24,05:25:00,DRY,4.75,4.15,8.5,776.00,0.5
2017-12-24,05:30:00,DRY,3.63,4.20,9.0,776.00,0.5
2017-12-24,05:35:00,DRY,3.55,4.20,9.5,776.00,0.9
2017-12-24,05:40:00,DRY,3.00,4.17,9.3,776.00,1.0
2017-12-24,05:45:00,DRY,2.95,4.25,9.0,776.00,0.9
2017-12-24,05:50:00,DRY,3.57,4.13,9.0,776.00,0.9
2017-12-24,05:55:00,DRY,4.45,4.25,9.5,776.00,0.6
2017-12-24,06:00:00,DRY,3.30,4.27,10.0,776.00,0.5
2017-12-24,06:05:00,DRY,2.05,4.50,9.0,776.00,0.6
2017-12-24,06:10:00,DRY,3.17,4.23,8.7,776.00,0.7
2017-12-24,06:15:00,DRY,2.55,4.35,9.0,776.00,1.3
2017-12-24,06:20:00,DRY,3.67,4.43,8.3,776.00,0.4
2017-12-24,06:25:00,DRY,3.70,4.65,8.0,776.00,0.6
2017-12-24,06:30:00,DRY,3.67,4.50,8.7,776.00,1.4
2017-12-24,06:35:00,DRY,4.75,4.35,8.5,776.00,0.5
2017-12-24,06:40:00,DRY,5.87,4.40,8.0,776.00,0.7
2017-12-24,06:45:00,DRY,5.25,4.20,9.5,776.00,0.6
2017-12-24,06:50:00,DRY,3.83,4.27,8.3,776.00,0.2
2017-12-24,06:55:00,DRY,4.00,4.40,7.0,776.00,0.2
2017-12-24,07:00:00,DRY,3.90,4.33,7.7,776.00,0.9
2017-12-24,07:05:00,DRY,3.50,4.40,7.0,776.00,0.6
2017-12-24,07:10:00,DRY,3.10,4.57,7.3,776.00,0.8
2017-12-24,07:15:00,DRY,4.45,4.45,8.0,776.00,0.7
2017-12-24,07:20:00,DRY,3.60,4.23,8.7,776.00,0.7
2017-12-24,07:25:00,DRY,3.15,4.40,9.5,776.00,0.1
2017-12-24,07:30:00,DRY,4.73,4.33,8.7,776.00,0.6
2017-12-24,07:35:00,DRY,3.80,4.20,8.0,776.00,0.9
2017-12-24,07:40:00,DRY,3.43,4.17,9.0,776.00,1.2
2017-12-24,07:45:00,DRY,5.70,4.25,9.5,776.00,1.0
2017-12-24,07:50:00,DRY,4.00,4.23,8.7,776.00,2.0
2017-12-24,07:55:00,DRY,4.35,4.20,9.0,776.00,3.9
2017-12-24,08:00:00,DRY,3.37,4.10,9.3,776.00,6.3
2017-12-24,08:05:00,DRY,2.65,4.10,8.0,776.00,7.8
2017-12-24,08:10:00,DRY,3.57,4.17,10.0,776.33,9.7
2017-12-24,08:15:00,DRY,1.65,4.15,10.0,776.00,12.3
2017-12-24,08:20:00,DRY,2.97,4.20,10.0,776.33,13.6
2017-12-24,08:25:00,DRY,1.90,4.25,10.0,776.00,15.0
2017-12-24,08:30:00,DRY,0.93,4.07,9.7,776.67,17.7
2017-12-24,08:35:00,DRY,2.05,4.30,8.0,776.50,20.6
2017-12-24,08:40:00,DRY,1.57,4.37,8.3,776.33,22.3
2017-12-24,08:45:00,DRY,2.65,4.75,7.0,776.50,119.3
2017-12-24,08:50:00,DRY,2.70,4.80,8.0,776.67,171.1
2017-12-24,08:55:00,DRY,3.05,4.90,8.0,776.50,188.7
2017-12-24,09:00:00,DRY,3.97,4.93,7.7,776.67,207.9
2017-12-24,09:05:00,DRY,3.20,5.05,8.5,776.50,226.9
2017-12-24,09:10:00,DRY,3.90,5.13,9.0,776.33,245.1
2017-12-24,09:15:00,DRY,2.60,5.20,9.5,777.00,263.0
2017-12-24,09:20:00,DRY,2.70,5.30,11.0,777.00,280.6
2017-12-24,09:25:00,DRY,2.85,5.30,10.5,777.00,298.2
2017-12-24,09:30:00,DRY,3.40,5.53,11.0,777.00,315.9
2017-12-24,09:35:00,DRY,4.25,5.50,11.5,777.00,333.4
2017-12-24,09:40:00,DRY,3.23,5.37,11.7,777.00,351.0
2017-12-24,09:45:00,DRY,3.35,5.40,12.5,777.00,367.6
2017-12-24,09:50:00,DRY,2.57,5.53,13.7,777.00,383.9
2017-12-24,09:55:00,DRY,2.30,5.55,13.5,777.00,401.2
2017-12-24,10:00:00,DRY,2.60,5.60,14.7,777.00,417.1
2017-12-24,10:05:00,DRY,3.05,5.55,14.5,777.00,432.9
2017-12-24,10:10:00,DRY,2.13,5.70,15.7,777.00,449.7
2017-12-24,10:15:00,DRY,2.05,5.65,13.5,777.00,464.4
2017-12-24,10:20:00,DRY,1.77,5.63,15.0,777.00,478.6
2017-12-24,10:25:00,DRY,2.25,5.75,15.0,777.00,493.7
2017-12-24,10:30:00,DRY,1.87,5.83,16.0,777.00,506.3
2017-12-24,10:35:00,DRY,3.65,6.00,15.5,777.00,521.1
2017-12-24,10:40:00,DRY,2.57,5.93,17.3,777.00,533.7
2017-12-24,10:45:00,DRY,2.05,5.95,22.0,777.00,546.5
2017-12-24,10:50:00,DRY,2.50,6.13,16.7,777.00,558.8
2017-12-24,10:55:00,DRY,1.85,6.00,18.0,777.00,571.0
2017-12-24,11:00:00,DRY,2.17,6.10,18.7,777.00,583.7
2017-12-24,11:05:00,DRY,2.10,6.25,17.0,777.00,592.5
2017-12-24,11:10:00,DRY,0.73,6.37,17.0,777.00,604.4
2017-12-24,11:15:00,DRY,2.35,6.40,16.0,777.00,616.1
2017-12-24,11:20:00,DRY,3.40,6.43,15.7,777.00,626.4
2017-12-24,11:25:00,DRY,3.85,6.50,14.5,777.00,635.5
2017-12-24,11:30:00,DRY,2.83,6.27,16.3,777.00,643.8
2017-12-24,11:35:00,DRY,2.70,6.35,17.0,777.00,653.5
2017-12-24,11:40:00,DRY,1.77,6.60,18.3,777.00,661.9
2017-12-24,11:45:00,DRY,3.20,6.65,18.5,777.00,669.5
2017-12-24,11:50:00,DRY,1.70,6.90,18.3,777.00,678.0
2017-12-24,11:55:00,DRY,1.35,7.05,16.0,777.00,685.8
2017-12-24,12:00:00,DRY,2.47,7.00,17.0,777.00,692.6
2017-12-24,12:05:00,DRY,2.90,6.70,20.0,777.00,697.2
2017-12-24,12:10:00,DRY,2.50,6.63,20.0,777.00,703.1
2017-12-24,12:15:00,DRY,2.05,6.85,17.0,777.00,711.2
2017-12-24,12:20:00,DRY,2.40,6.80,18.0,776.33,713.7
2017-12-24,12:25:00,DRY,3.90,6.80,22.0,776.00,716.5
2017-12-24,12:30:00,DRY,1.67,6.83,24.7,776.00,720.7
2017-12-24,12:35:00,DRY,0.50,6.90,24.5,776.00,724.5
2017-12-24,12:40:00,DRY,2.60,6.83,23.7,776.00,727.5
2017-12-24,12:45:00,DRY,1.55,6.30,35.0,776.00,729.0
2017-12-24,12:50:00,DRY,3.03,6.23,30.3,776.00,732.7
2017-12-24,12:55:00,DRY,2.55,6.45,26.5,776.00,732.3
2017-12-24,13:00:00,DRY,2.00,6.20,24.3,776.00,733.2
2017-12-24,13:05:00,DRY,3.20,6.30,26.5,776.00,735.2
2017-12-24,13:10:00,DRY,1.83,6.50,27.7,776.00,735.1
2017-12-24,13:15:00,DRY,1.10,6.25,37.0,776.00,734.5
2017-12-24,13:20:00,DRY,3.33,6.10,33.7,776.00,733.1
2017-12-24,13:25:00,DRY,1.10,6.20,34.0,776.00,734.1
2017-12-24,13:30:00,DRY,1.70,6.30,30.0,776.00,731.6
2017-12-24,13:35:00,DRY,1.10,6.10,27.0,775.00,725.9
2017-12-24,13:40:00,DRY,3.60,6.20,35.0,775.33,725.9
2017-12-24,13:45:00,DRY,3.15,6.00,35.5,775.00,722.5
2017-12-24,13:50:00,DRY,0.80,6.20,33.3,775.00,721.2
2017-12-24,13:55:00,DRY,1.20,6.45,34.5,775.00,718.2
2017-12-24,14:00:00,DRY,1.20,6.23,39.0,775.00,712.0
2017-12-24,14:05:00,DRY,0.90,6.00,49.0,775.00,708.8
2017-12-24,14:10:00,DRY,1.30,5.93,42.0,775.00,703.2
2017-12-24,14:15:00,DRY,1.50,5.90,37.0,775.00,697.7
2017-12-24,14:20:00,DRY,1.63,6.10,32.0,775.00,694.0
2017-12-24,14:25:00,DRY,1.55,6.35,36.5,775.00,689.2
2017-12-24,14:30:00,DRY,2.43,5.80,41.7,775.00,684.9
2017-12-24,14:35:00,DRY,2.35,5.60,46.5,775.00,682.6
2017-12-24,14:40:00,DRY,3.40,5.70,44.7,775.00,670.0
2017-12-24,14:45:00,DRY,2.85,5.65,40.0,775.00,670.0
2017-12-24,14:50:00,DRY,2.43,6.03,34.3,775.00,654.5
2017-12-24,14:55:00,DRY,3.10,6.35,33.5,775.00,641.4
2017-12-24,15:00:00,DRY,1.90,6.57,32.7,775.00,628.8
2017-12-24,15:05:00,DRY,1.65,6.35,31.0,775.00,618.3
2017-12-24,15:10:00,DRY,2.23,6.40,27.3,775.00,592.9
2017-12-24,15:15:00,DRY,2.35,6.00,20.0,775.00,404.0
2017-12-24,15:20:00,DRY,2.80,5.87,17.0,775.00,271.5
2017-12-24,15:25:00,DRY,3.50,5.55,19.5,775.00,459.2
2017-12-24,15:30:00,DRY,3.70,5.90,18.3,775.00,567.0
2017-12-24,15:35:00,DRY,3.85,6.05,16.0,775.00,552.0
2017-12-24,15:40:00,DRY,3.13,5.90,14.7,775.00,535.7
2017-12-24,15:45:00,DRY,2.85,6.00,14.0,775.00,520.2
2017-12-24,15:50:00,DRY,4.23,6.00,15.7,775.00,503.5
2017-12-24,15:55:00,DRY,3.70,5.70,14.5,775.00,487.4
2017-12-24,16:00:00,DRY,2.63,5.70,12.7,775.00,470.7
2017-12-24,16:05:00,DRY,3.30,5.75,12.0,775.00,454.4
2017-12-24,16:10:00,DRY,1.87,5.83,12.0,775.00,438.5
2017-12-24,16:15:00,DRY,1.70,5.90,13.5,775.00,421.1
2017-12-24,16:20:00,DRY,2.50,6.07,13.3,775.00,404.8
2017-12-24,16:25:00,DRY,2.30,5.95,16.0,775.00,388.2
2017-12-24,16:30:00,DRY,2.10,5.87,12.3,775.00,371.7
2017-12-24,16:35:00,DRY,2.85,5.65,7.5,775.00,354.1
2017-12-24,16:40:00,DRY,2.43,5.63,9.0,775.00,336.0
2017-12-24,16:45:00,DRY,2.80,5.65,7.5,775.00,318.2
2017-12-24,16:50:00,DRY,2.27,5.53,8.0,775.00,301.2
2017-12-24,16:55:00,DRY,2.25,5.40,9.5,775.00,282.6
2017-12-24,17:00:00,DRY,3.40,5.43,10.0,775.00,265.0
2017-12-24,17:05:00,DRY,2.65,5.50,10.5,775.00,246.4
2017-12-24,17:10:00,DRY,2.83,5.43,10.3,775.00,228.0
2017-12-24,17:15:00,DRY,1.75,5.50,10.0,775.00,210.9
2017-12-24,17:20:00,DRY,2.77,5.53,9.3,775.00,193.5
2017-12-24,17:25:00,DRY,1.55,5.60,9.0,775.00,175.2
2017-12-24,17:30:00,DRY,2.67,5.63,11.0,775.00,158.7
2017-12-24,17:35:00,DRY,2.10,5.60,12.5,775.00,141.8
2017-12-24,17:40:00,DRY,2.23,5.67,12.7,775.00,118.1
2017-12-24,17:45:00,DRY,1.50,5.55,12.5,775.00,94.4
2017-12-24,17:50:00,DRY,1.70,5.53,12.7,775.00,73.5
2017-12-24,17:55:00,DRY,1.35,5.50,12.0,775.00,54.5
2017-12-24,18:00:00,DRY,1.17,5.33,11.7,775.00,38.0
2017-12-24,18:05:00,DRY,0.90,5.35,12.0,775.00,25.8
2017-12-24,18:10:00,DRY,1.67,5.27,12.3,775.00,16.3
2017-12-24,18:15:00,DRY,1.70,5.20,11.5,775.00,12.9
2017-12-24,18:20:00,DRY,2.37,5.50,10.7,775.00,8.2
2017-12-24,18:25:00,DRY,1.30,5.40,10.5,775.00,4.0
2017-12-24,18:30:00,DRY,1.97,5.27,10.7,775.00,1.9
2017-12-24,18:35:00,DRY,2.15,5.25,10.0,775.00,1.6
2017-12-24,18:40:00,DRY,2.27,5.07,11.3,775.00,0.8
2017-12-24,18:45:00,DRY,1.25,5.10,11.0,775.00,0.0
2017-12-24,18:50:00,DRY,1.87,5.20,11.0,775.00,0.0
2017-12-24,18:55:00,DRY,1.75,5.10,10.5,775.00,0.0
2017-12-24,19:00:00,DRY,2.80,5.17,10.0,775.00,0.4
2017-12-24,19:05:00,DRY,2.85,5.20,9.5,775.00,0.7
2017-12-24,19:10:00,DRY,2.03,5.23,9.7,775.00,0.4
2017-12-24,19:15:00,DRY,3.05,5.15,10.0,775.00,1.1
2017-12-24,19:20:00,DRY,3.30,5.23,10.3,775.00,0.2
2017-12-24,19:25:00,DRY,1.90,5.20,11.0,775.00,0.6
2017-12-24,19:30:00,DRY,2.53,5.17,10.3,775.00,0.6
2017-12-24,19:35:00,DRY,1.40,5.10,11.0,775.00,0.5
2017-12-24,19:40:00,DRY,3.00,5.30,10.3,775.00,0.3
2017-12-24,19:45:00,DRY,1.70,5.15,10.0,775.00,0.8
2017-12-24,19:50:00,DRY,1.80,5.23,10.0,775.00,1.2
2017-12-24,19:55:00,DRY,3.35,5.35,10.0,775.00,0.3
2017-12-24,20:00:00,DRY,2.60,5.43,9.3,775.00,0.8
2017-12-24,20:05:00,DRY,1.55,5.40,10.5,775.00,0.8
2017-12-24,20:10:00,DRY,2.70,5.37,10.0,775.00,1.1
2017-12-24,20:15:00,DRY,5.60,5.60,9.0,775.00,0.3
2017-12-24,20:20:00,DRY,2.47,5.40,9.3,775.00,0.1
2017-12-24,20:25:00,DRY,2.80,5.45,9.0,775.00,0.3
2017-12-24,20:30:00,DRY,3.63,5.37,9.7,775.33,0.7
2017-12-24,20:35:00,DRY,1.75,5.25,10.5,776.00,0.6
2017-12-24,20:40:00,DRY,2.07,5.33,10.3,775.00,0.2
2017-12-24,20:45:00,DRY,2.20,5.25,10.0,775.50,0.6
2017-12-24,20:50:00,DRY,2.83,5.23,10.3,775.67,0.4
2017-12-24,20:55:00,DRY,2.45,5.15,11.0,776.00,0.0
2017-12-24,21:00:00,DRY,2.20,5.43,9.3,775.67,0.8
2017-12-24,21:05:00,DRY,2.70,5.35,10.0,775.50,0.8